Weather in Detroit

United States     42°19′58″N   83°02′35″W
temp.,
°C
wind,
m/s
gust,
m/s
humid.,
%
clouds,
%
prec.,
mm/h
press.,
hPa
HPBL,
m
16 may, sun
sun1623:00+16wnw2550100 0.0 1022174
02:00+15nnw3656100 0.0 1023294
05:00+13se1367100 0.2 1023124
08:00+12ne2372100 0.4 1024198
11:00+15se235579 0.0 1025600
14:00+19sw224280 0.0 10231929
17:00+18sw224688 0.0 10231152
20:00+17sse235249 0.0 1022116
17 may, mon
mon1723:00+14sse2455100 0.0 1023113
02:00+14se2560100 0.0 1023112
05:00+13se2374100 0.0 102381
08:00+14sse2675100 0.0 1024188
11:00+18s3454100 0.0 1024513
14:00+20s3446100 0.0 1023972
17:00+20s2345100 0.0 10231017
20:00+18sse2259100 0.0 102477
18 may, tue
tue1823:00+15sse2372100 0.0 102468
02:00+14se2276100 0.0 102441
05:00+13se2378100 0.0 102472
08:00+15ese2573100 0.0 1026161
11:00+19se4654100 0.0 1026733
14:00+21sse4646100 0.0 1025910
17:00+22s4449100 0.0 10241060
20:00+19s2464100 0.0 1024286
19 may, wed
wed1923:00+16sse3674100 0.0 1025168
02:00+16se267299 0.0 1024186
05:00+15sse258398 0.0 1024108
08:00+17s2682100 0.0 1026232
11:00+17s3883100 0.1 1026369
14:00+20s5967100 0.2 1025671
17:00+21s4866100 0.0 1024611
20:00+20se3780100 0.4 1023244
20 may, thu
thu2023:00+18s3992100 2.9 1024243
02:00+18sse3995100 5.3 1024231
05:00+17ssw269586 0.2 1025140
08:00+18ssw388871 0.2 1026244
11:00+23ssw476679 0.0 1026548
14:00+27ssw585199 0.0 10251247
17:00+28ssw574693 0.0 10241689
20:00+24s3765100 0.0 1024171